,,,PA_Meas_PMT16A,,PR_Meas_QMR101_102,,RH_Meas_QMH101,,SR_Meas_QMS101,,TA_Meas_QMH101,,GenWind,,GenWind,
date,time,status,PA,status,PR,status,RH,status,SR,status,TA,status,DirAvg,status,SpdAvg,
2009-06-21, 00:00:04,VALID,1004.07,VALID,0,VALID,94.1709,VALID,0,VALID,23.6823,VALID,320,VALID,0.442187,
2009-06-21, 00:01:04,VALID,1004.05,VALID,0,VALID,94.2167,VALID,0,VALID,23.7407,VALID,346,VALID,0.609375,
2009-06-21, 00:02:04,VALID,1003.99,VALID,0,VALID,94.2243,VALID,0,VALID,23.8009,VALID,354,VALID,0.366406,
2009-06-21, 00:03:04,VALID,1003.99,VALID,0,VALID,94.2777,VALID,0,VALID,23.838,VALID,354,VALID,0.228516,
2009-06-21, 00:04:04,VALID,1003.99,VALID,0,VALID,94.3082,VALID,0,VALID,23.9159,VALID,311,VALID,0.458594,
2009-06-21, 00:05:04,VALID,1003.98,VALID,0,VALID,94.4455,VALID,0,VALID,24.0345,VALID,345,VALID,0.933203,
2009-06-21, 00:06:04,VALID,1003.97,VALID,0,VALID,94.5523,VALID,0,VALID,24.1513,VALID,359,VALID,1.31445,
2009-06-21, 00:07:04,VALID,1004,VALID,0,VALID,94.5752,VALID,0,VALID,24.1902,VALID,358,VALID,0.727734,
2009-06-21, 00:08:04,VALID,1004,VALID,0,VALID,94.5676,VALID,0,VALID,24.2273,VALID,360,VALID,0.267578,
2009-06-21, 00:09:04,VALID,1003.99,VALID,0,VALID,94.5371,VALID,0,VALID,24.2468,VALID,360,VALID,0,
2009-06-21, 00:10:04,VALID,1003.97,VALID,0,VALID,94.5447,VALID,0,VALID,24.2662,VALID,360,VALID,0.103516,
2009-06-21, 00:11:04,VALID,1003.92,VALID,0,VALID,94.5142,VALID,0,VALID,24.3265,VALID,360,VALID,0.482812,
2009-06-21, 00:12:04,VALID,1003.9,VALID,0,VALID,94.5447,VALID,0,VALID,24.3441,VALID,360,VALID,0.234766,
2009-06-21, 00:13:04,VALID,1003.87,VALID,0,VALID,94.5523,VALID,0,VALID,24.383,VALID,360,VALID,0.366016,
2009-06-21, 00:14:04,VALID,1003.87,VALID,0,VALID,94.5752,VALID,0,VALID,24.4609,VALID,341,VALID,0.475781,
2009-06-21, 00:15:04,VALID,1003.84,VALID,0,VALID,94.621,VALID,0,VALID,24.5193,VALID,341,VALID,0.195703,
2009-06-21, 00:16:04,VALID,1003.82,VALID,0,VALID,94.621,VALID,0,VALID,24.5601,VALID,346,VALID,0.716016,
2009-06-21, 00:17:04,VALID,1003.83,VALID,0,VALID,94.5905,VALID,0,VALID,24.5582,VALID,355,VALID,0.318359,
2009-06-21, 00:18:04,VALID,1003.8,VALID,0,VALID,94.5905,VALID,0,VALID,24.5582,VALID,355,VALID,0.180859,
2009-06-21, 00:19:04,VALID,1003.82,VALID,0,VALID,94.5752,VALID,0,VALID,24.5796,VALID,355,VALID,0,
2009-06-21, 00:20:04,VALID,1003.81,VALID,0,VALID,94.5829,VALID,0,VALID,24.599,VALID,355,VALID,0.00429688,
2009-06-21, 00:21:04,VALID,1003.8,VALID,0,VALID,94.5676,VALID,0,VALID,24.6204,VALID,358,VALID,0.222266,
2009-06-21, 00:22:04,VALID,1003.82,VALID,0,VALID,94.5447,VALID,0,VALID,24.6166,VALID,24,VALID,0.298438,
2009-06-21, 00:23:04,VALID,1003.77,VALID,0,VALID,94.5523,VALID,0,VALID,24.6361,VALID,22,VALID,0.925781,
2009-06-21, 00:24:04,VALID,1003.77,VALID,0,VALID,94.6134,VALID,0,VALID,24.7159,VALID,312,VALID,0.457031,
2009-06-21, 00:25:04,VALID,1003.73,VALID,0,VALID,94.6134,VALID,0,VALID,24.7548,VALID,35,VALID,0.561328,
2009-06-21, 00:26:04,VALID,1003.74,VALID,0,VALID,94.5981,VALID,0,VALID,24.8132,VALID,64,VALID,0.310937,
2009-06-21, 00:27:04,VALID,1003.72,VALID,0,VALID,94.5981,VALID,0,VALID,24.854,VALID,64,VALID,0.325391,
2009-06-21, 00:28:04,VALID,1003.69,VALID,0.5,VALID,94.5752,VALID,0,VALID,24.8522,VALID,55,VALID,0.187891,
2009-06-21, 00:29:04,VALID,1003.68,VALID,0,VALID,94.5905,VALID,0,VALID,24.9106,VALID,63,VALID,0.486719,
2009-06-21, 00:30:04,VALID,1003.67,VALID,0,VALID,94.5905,VALID,0,VALID,24.969,VALID,167,VALID,0.998828,
2009-06-21, 00:31:04,VALID,1003.62,VALID,0,VALID,94.5981,VALID,0,VALID,25.0663,VALID,260,VALID,0.714063,
2009-06-21, 00:32:04,VALID,1003.66,VALID,0,VALID,94.5829,VALID,0,VALID,25.1442,VALID,312,VALID,0.946875,
2009-06-21, 00:33:04,VALID,1003.68,VALID,0,VALID,94.5295,VALID,0,VALID,25.224,VALID,247,VALID,0.460156,
2009-06-21, 00:34:04,VALID,1003.69,VALID,0,VALID,94.3998,VALID,0,VALID,25.3019,VALID,303,VALID,1.21602,
2009-06-21, 00:35:04,VALID,1003.74,VALID,0,VALID,94.1785,VALID,0,VALID,25.3409,VALID,304,VALID,2.19258,
2009-06-21, 00:36:04,VALID,1003.74,VALID,0,VALID,93.6674,VALID,0,VALID,25.3584,VALID,346,VALID,0.560156,
2009-06-21, 00:37:04,VALID,1003.73,VALID,0,VALID,93.3394,VALID,0,VALID,25.3798,VALID,289,VALID,0.524609,
2009-06-21, 00:38:04,VALID,1003.73,VALID,0,VALID,93.2631,VALID,0,VALID,25.3779,VALID,335,VALID,0.231641,
2009-06-21, 00:39:04,VALID,1003.74,VALID,0,VALID,93.3088,VALID,0,VALID,25.3798,VALID,20,VALID,0.429297,
2009-06-21, 00:40:04,VALID,1003.7,VALID,0,VALID,93.2936,VALID,0,VALID,25.3604,VALID,331,VALID,0.665234,
2009-06-21, 00:41:04,VALID,1003.71,VALID,0,VALID,93.347,VALID,0,VALID,25.339,VALID,315,VALID,0.557422,
2009-06-21, 00:42:04,VALID,1003.7,VALID,0,VALID,93.3165,VALID,0,VALID,25.3176,VALID,345,VALID,1.15391,
2009-06-21, 00:43:04,VALID,1003.69,VALID,0,VALID,93.2554,VALID,0,VALID,25.3584,VALID,342,VALID,0.891016,
2009-06-21, 00:44:04,VALID,1003.7,VALID,0,VALID,93.202,VALID,0,VALID,25.3176,VALID,352,VALID,0.649219,
2009-06-21, 00:45:04,VALID,1003.71,VALID,0,VALID,93.202,VALID,0,VALID,25.3195,VALID,360,VALID,0.297266,
2009-06-21, 00:46:04,VALID,1003.68,VALID,0,VALID,93.2631,VALID,0.100563,VALID,25.2981,VALID,349,VALID,0.684766,
2009-06-21, 00:47:04,VALID,1003.66,VALID,0,VALID,93.2402,VALID,0,VALID,25.2767,VALID,356,VALID,0.91875,
2009-06-21, 00:48:04,VALID,1003.69,VALID,0,VALID,93.2325,VALID,0,VALID,25.2981,VALID,285,VALID,0.903906,
2009-06-21, 00:49:04,VALID,1003.68,VALID,0,VALID,93.1944,VALID,0,VALID,25.3176,VALID,300,VALID,0.643359,
2009-06-21, 00:50:04,VALID,1003.66,VALID,0,VALID,93.1486,VALID,0,VALID,25.2962,VALID,349,VALID,0.48125,
2009-06-21, 00:51:04,VALID,1003.64,VALID,0,VALID,93.1181,VALID,0,VALID,25.339,VALID,342,VALID,0.310156,
2009-06-21, 00:52:04,VALID,1003.61,VALID,0,VALID,93.1105,VALID,0,VALID,25.3195,VALID,294,VALID,0.298828,
2009-06-21, 00:53:04,VALID,1003.6,VALID,0,VALID,93.1181,VALID,0,VALID,25.339,VALID,344,VALID,0.39375,
2009-06-21, 00:54:04,VALID,1003.59,VALID,0,VALID,93.1029,VALID,0,VALID,25.339,VALID,334,VALID,0.307813,
2009-06-21, 00:55:04,VALID,1003.57,VALID,0,VALID,93.08,VALID,0,VALID,25.3176,VALID,298,VALID,1.05938,
2009-06-21, 00:56:04,VALID,1003.55,VALID,0,VALID,93.0495,VALID,0,VALID,25.3176,VALID,295,VALID,0.764063,
2009-06-21, 00:57:04,VALID,1003.53,VALID,0,VALID,93.1029,VALID,0,VALID,25.3584,VALID,292,VALID,0.234375,
2009-06-21, 00:58:04,VALID,1003.53,VALID,0,VALID,93.0418,VALID,0,VALID,25.2981,VALID,294,VALID,1.40859,
2009-06-21, 00:59:04,VALID,1003.53,VALID,0,VALID,93.0266,VALID,0,VALID,25.3176,VALID,277,VALID,0.426172,
2009-06-21, 01:00:04,VALID,1003.47,VALID,0,VALID,93.0418,VALID,0,VALID,25.339,VALID,289,VALID,0.446875,
2009-06-21, 01:01:04,VALID,1003.44,VALID,0,VALID,93.0571,VALID,0,VALID,25.2786,VALID,289,VALID,1.01289,
2009-06-21, 01:02:04,VALID,1003.43,VALID,0,VALID,93.1105,VALID,0.100563,VALID,25.2592,VALID,305,VALID,0.464453,
2009-06-21, 01:03:04,VALID,1003.39,VALID,0,VALID,93.1715,VALID,0,VALID,25.2397,VALID,295,VALID,0.74375,
2009-06-21, 01:04:04,VALID,1003.41,VALID,0,VALID,93.1105,VALID,0,VALID,25.2397,VALID,290,VALID,0.962109,
2009-06-21, 01:05:04,VALID,1003.35,VALID,0,VALID,92.9732,VALID,0,VALID,25.2611,VALID,308,VALID,1.18906,
2009-06-21, 01:06:04,VALID,1003.36,VALID,0,VALID,92.1798,VALID,0,VALID,25.2378,VALID,242,VALID,1.03125,
2009-06-21, 01:07:04,VALID,1003.38,VALID,0,VALID,91.4626,VALID,0,VALID,25.3351,VALID,330,VALID,0.903125,
2009-06-21, 01:08:04,VALID,1003.34,VALID,0,VALID,91.3101,VALID,0,VALID,25.4344,VALID,303,VALID,0.567578,
2009-06-21, 01:09:04,VALID,1003.34,VALID,0,VALID,90.3183,VALID,0,VALID,25.4363,VALID,306,VALID,1.54023,
2009-06-21, 01:10:04,VALID,1003.33,VALID,0,VALID,89.7996,VALID,0,VALID,25.5142,VALID,88,VALID,0.378125,
2009-06-21, 01:11:04,VALID,1003.36,VALID,0,VALID,88.9604,VALID,0,VALID,25.5513,VALID,313,VALID,1.26133,
2009-06-21, 01:12:04,VALID,1003.34,VALID,0,VALID,87.4956,VALID,0,VALID,25.67,VALID,283,VALID,1.83281,
2009-06-21, 01:13:04,VALID,1003.36,VALID,0,VALID,86.8701,VALID,0,VALID,25.746,VALID,270,VALID,1.0918,
2009-06-21, 01:14:04,VALID,1003.33,VALID,0,VALID,86.3666,VALID,0,VALID,25.785,VALID,314,VALID,0.89375,
2009-06-21, 01:15:04,VALID,1003.3,VALID,0,VALID,85.8249,VALID,0,VALID,25.8259,VALID,287,VALID,1.50273,
2009-06-21, 01:16:04,VALID,1003.31,VALID,0,VALID,85.0773,VALID,0,VALID,25.8434,VALID,320,VALID,1.82461,
2009-06-21, 01:17:04,VALID,1003.3,VALID,0,VALID,85.4663,VALID,0,VALID,25.8823,VALID,278,VALID,0.780859,
2009-06-21, 01:18:04,VALID,1003.3,VALID,0,VALID,84.6119,VALID,0,VALID,25.8823,VALID,273,VALID,2.00156,
2009-06-21, 01:19:04,VALID,1003.29,VALID,0,VALID,83.9406,VALID,0,VALID,25.9213,VALID,268,VALID,2.18438,
2009-06-21, 01:20:04,VALID,1003.27,VALID,0,VALID,83.5973,VALID,0,VALID,25.9817,VALID,294,VALID,2.19258,
2009-06-21, 01:21:04,VALID,1003.28,VALID,0,VALID,84.2076,VALID,0,VALID,26.0381,VALID,286,VALID,1.11641,
2009-06-21, 01:22:04,VALID,1003.28,VALID,0,VALID,84.3754,VALID,0,VALID,26.0187,VALID,286,VALID,1.05156,
2009-06-21, 01:23:04,VALID,1003.27,VALID,0,VALID,84.6272,VALID,0.100563,VALID,26.0381,VALID,282,VALID,1.70195,
2009-06-21, 01:24:04,VALID,1003.33,VALID,0,VALID,85.0239,VALID,0,VALID,26.0576,VALID,293,VALID,0.783203,
2009-06-21, 01:25:04,VALID,1003.27,VALID,0,VALID,85.4129,VALID,0.100563,VALID,26.0556,VALID,235,VALID,1.07109,
2009-06-21, 01:26:04,VALID,1003.23,VALID,0,VALID,85.6494,VALID,0.100563,VALID,26.0771,VALID,310,VALID,1.21992,
2009-06-21, 01:27:04,VALID,1003.28,VALID,0,VALID,85.6342,VALID,0,VALID,26.0966,VALID,326,VALID,0.841016,
2009-06-21, 01:28:04,VALID,1003.29,VALID,0,VALID,85.6189,VALID,0.100563,VALID,26.116,VALID,205,VALID,0.982422,
2009-06-21, 01:29:04,VALID,1003.27,VALID,0,VALID,84.9857,VALID,0,VALID,26.1355,VALID,293,VALID,1.29688,
2009-06-21, 01:30:04,VALID,1003.27,VALID,0,VALID,85.4129,VALID,0,VALID,26.1765,VALID,272,VALID,0.569531,
2009-06-21, 01:31:04,VALID,1003.27,VALID,0,VALID,84.6729,VALID,0,VALID,26.1765,VALID,297,VALID,1.16211,
2009-06-21, 01:32:04,VALID,1003.24,VALID,0,VALID,85.329,VALID,0,VALID,26.1765,VALID,268,VALID,0.848437,
2009-06-21, 01:33:04,VALID,1003.25,VALID,0,VALID,84.94,VALID,0,VALID,26.1765,VALID,301,VALID,1.25,
2009-06-21, 01:34:04,VALID,1003.27,VALID,0,VALID,85.0391,VALID,0,VALID,26.157,VALID,338,VALID,0.791797,
2009-06-21, 01:35:04,VALID,1003.24,VALID,0,VALID,84.8179,VALID,0,VALID,26.155,VALID,317,VALID,0.958984,
2009-06-21, 01:36:04,VALID,1003.23,VALID,0,VALID,85.1383,VALID,0,VALID,26.1355,VALID,269,VALID,0.760156,
2009-06-21, 01:37:04,VALID,1003.21,VALID,0,VALID,84.4288,VALID,0,VALID,26.1355,VALID,313,VALID,1.03828,
2009-06-21, 01:38:04,VALID,1003.23,VALID,0,VALID,84.8866,VALID,0,VALID,26.155,VALID,232,VALID,0.394141,
2009-06-21, 01:39:04,VALID,1003.21,VALID,0,VALID,84.1237,VALID,0,VALID,26.1745,VALID,192,VALID,1.37539,
2009-06-21, 01:40:04,VALID,1003.19,VALID,0,VALID,84.3678,VALID,0,VALID,26.2329,VALID,226,VALID,1.20938,
2009-06-21, 01:41:04,VALID,1003.17,VALID,0,VALID,84.3678,VALID,0,VALID,26.3128,VALID,294,VALID,1.22852,
2009-06-21, 01:42:04,VALID,1003.08,VALID,0,VALID,83.9101,VALID,0,VALID,26.3128,VALID,272,VALID,1.31992,
2009-06-21, 01:43:04,VALID,1003.08,VALID,0,VALID,83.7956,VALID,0,VALID,26.3907,VALID,303,VALID,1.61211,
2009-06-21, 01:44:04,VALID,1003.03,VALID,0,VALID,84.1618,VALID,0,VALID,26.4102,VALID,246,VALID,1.7668,
2009-06-21, 01:45:04,VALID,1002.97,VALID,0,VALID,84.1313,VALID,0,VALID,26.4102,VALID,255,VALID,2.25234,
2009-06-21, 01:46:04,VALID,1002.93,VALID,0,VALID,84.261,VALID,0,VALID,26.4297,VALID,273,VALID,2.08398,
2009-06-21, 01:47:04,VALID,1002.9,VALID,0,VALID,84.5051,VALID,0,VALID,26.4472,VALID,279,VALID,1.45781,
2009-06-21, 01:48:04,VALID,1002.84,VALID,0,VALID,84.5585,VALID,0,VALID,26.4667,VALID,298,VALID,1.00039,
2009-06-21, 01:49:04,VALID,1002.86,VALID,0,VALID,84.6577,VALID,0,VALID,26.4881,VALID,301,VALID,2.08828,
2009-06-21, 01:50:04,VALID,1002.83,VALID,0,VALID,84.8713,VALID,0,VALID,26.4667,VALID,269,VALID,1.10547,
2009-06-21, 01:51:04,VALID,1002.81,VALID,0,VALID,85.1688,VALID,0,VALID,26.4667,VALID,272,VALID,0.855078,
2009-06-21, 01:52:04,VALID,1002.82,VALID,0,VALID,85.2527,VALID,0,VALID,26.4492,VALID,278,VALID,1.51211,
2009-06-21, 01:53:04,VALID,1002.8,VALID,0,VALID,84.3525,VALID,0,VALID,26.4492,VALID,288,VALID,2.61016,
2009-06-21, 01:54:04,VALID,1002.77,VALID,0,VALID,84.3144,VALID,0,VALID,26.5271,VALID,284,VALID,2.25352,
2009-06-21, 01:55:04,VALID,1002.8,VALID,0,VALID,84.4899,VALID,0,VALID,26.5271,VALID,251,VALID,0.698047,
2009-06-21, 01:56:04,VALID,1002.85,VALID,0,VALID,84.1694,VALID,0,VALID,26.5076,VALID,279,VALID,1.10234,
2009-06-21, 01:57:04,VALID,1002.79,VALID,0,VALID,83.1167,VALID,0,VALID,26.5271,VALID,277,VALID,2.70117,
2009-06-21, 01:58:04,VALID,1002.84,VALID,0,VALID,83.2158,VALID,0,VALID,26.607,VALID,351,VALID,1.01797,
2009-06-21, 01:59:04,VALID,1002.91,VALID,0,VALID,82.9488,VALID,0,VALID,26.5835,VALID,259,VALID,1.23086,
2009-06-21, 02:00:04,VALID,1002.96,VALID,0,VALID,82.9564,VALID,0,VALID,26.5815,VALID,292,VALID,1.17813,
2009-06-21, 02:01:04,VALID,1002.89,VALID,0,VALID,82.6208,VALID,0,VALID,26.6225,VALID,287,VALID,2.53984,
2009-06-21, 02:02:04,VALID,1002.99,VALID,0,VALID,83.0861,VALID,0,VALID,26.7024,VALID,283,VALID,0.687891,
2009-06-21, 02:03:04,VALID,1003.04,VALID,0,VALID,82.9336,VALID,0,VALID,26.683,VALID,296,VALID,1.15625,
2009-06-21, 02:04:04,VALID,1003,VALID,0,VALID,83.6202,VALID,0,VALID,26.7024,VALID,215,VALID,0.438672,
2009-06-21, 02:05:04,VALID,1003.02,VALID,0,VALID,83.2845,VALID,0,VALID,26.642,VALID,330,VALID,1.32578,
2009-06-21, 02:06:04,VALID,1003.02,VALID,0,VALID,83.4523,VALID,0,VALID,26.644,VALID,287,VALID,0.828906,
2009-06-21, 02:07:04,VALID,1003.02,VALID,0,VALID,82.5521,VALID,0,VALID,26.6635,VALID,274,VALID,2.37461,
2009-06-21, 02:08:04,VALID,1002.98,VALID,0,VALID,82.9183,VALID,0,VALID,26.6809,VALID,237,VALID,1.66953,
2009-06-21, 02:09:04,VALID,1003.04,VALID,0,VALID,83.2082,VALID,0,VALID,26.7004,VALID,252,VALID,0.721094,
2009-06-21, 02:10:04,VALID,1003.03,VALID,0,VALID,82.7581,VALID,0,VALID,26.7199,VALID,203,VALID,1.4707,
2009-06-21, 02:11:04,VALID,1002.96,VALID,0,VALID,82.9946,VALID,0,VALID,26.7394,VALID,268,VALID,1.07227,
2009-06-21, 02:12:04,VALID,1003.01,VALID,0,VALID,82.3538,VALID,0,VALID,26.7998,VALID,271,VALID,1.82656,
2009-06-21, 02:13:04,VALID,1003.01,VALID,0,VALID,81.9037,VALID,0,VALID,26.8193,VALID,268,VALID,1.60898,
2009-06-21, 02:14:04,VALID,1003.01,VALID,0,VALID,82.1096,VALID,0,VALID,26.8388,VALID,243,VALID,1.12266,
2009-06-21, 02:15:04,VALID,1003.03,VALID,0,VALID,82.1478,VALID,0,VALID,26.8583,VALID,290,VALID,1.50039,
2009-06-21, 02:16:05,VALID,1003.05,VALID,0,VALID,81.5985,VALID,0,VALID,26.8973,VALID,291,VALID,2.46406,
2009-06-21, 02:17:05,VALID,1003.05,VALID,0,VALID,81.9342,VALID,0,VALID,26.8757,VALID,210,VALID,0.876562,
2009-06-21, 02:18:05,VALID,1003.05,VALID,0,VALID,81.1637,VALID,0,VALID,26.8952,VALID,283,VALID,2.89805,
2009-06-21, 02:19:05,VALID,1002.97,VALID,0,VALID,80.416,VALID,0,VALID,26.9557,VALID,262,VALID,1.90469,
2009-06-21, 02:20:05,VALID,1003.01,VALID,0,VALID,80.5457,VALID,0,VALID,26.9752,VALID,298,VALID,1.13008,
2009-06-21, 02:21:05,VALID,1002.95,VALID,0,VALID,79.6303,VALID,0,VALID,27.0142,VALID,289,VALID,3.02422,
2009-06-21, 02:22:05,VALID,1002.99,VALID,0,VALID,79.8668,VALID,0,VALID,27.0726,VALID,270,VALID,2.3875,
2009-06-21, 02:23:05,VALID,1003,VALID,0,VALID,79.9507,VALID,0,VALID,27.0726,VALID,292,VALID,2.12578,
2009-06-21, 02:24:05,VALID,1003.06,VALID,0,VALID,80.4999,VALID,0,VALID,27.0921,VALID,273,VALID,1.44414,
2009-06-21, 02:25:05,VALID,1003.05,VALID,0,VALID,79.9507,VALID,0,VALID,27.1311,VALID,280,VALID,1.77578,
2009-06-21, 02:26:05,VALID,1003.05,VALID,0,VALID,79.6913,VALID,0,VALID,27.129,VALID,301,VALID,1.34219,
2009-06-21, 02:27:05,VALID,1003.08,VALID,0,VALID,79.9964,VALID,0,VALID,27.1506,VALID,250,VALID,1.13516,
2009-06-21, 02:28:05,VALID,1003.08,VALID,0,VALID,80.4313,VALID,0,VALID,27.1311,VALID,163,VALID,0.366016,
2009-06-21, 02:29:05,VALID,1003.1,VALID,0,VALID,79.8591,VALID,0,VALID,27.0706,VALID,267,VALID,2.22891,
2009-06-21, 02:30:05,VALID,1003.07,VALID,0,VALID,79.7981,VALID,0,VALID,27.1116,VALID,269,VALID,1.48164,
2009-06-21, 02:31:05,VALID,1003.09,VALID,0,VALID,80.1109,VALID,0,VALID,27.129,VALID,245,VALID,1.5207,
2009-06-21, 02:32:05,VALID,1003.11,VALID,0.5,VALID,79.6379,VALID,0,VALID,27.1311,VALID,304,VALID,2.58008,
2009-06-21, 02:33:05,VALID,1003.08,VALID,0,VALID,79.5769,VALID,0,VALID,27.17,VALID,291,VALID,2.05273,
2009-06-21, 02:34:05,VALID,1003.13,VALID,0,VALID,79.2793,VALID,0,VALID,27.1916,VALID,238,VALID,1.58164,
2009-06-21, 02:35:05,VALID,1003.15,VALID,0,VALID,79.0199,VALID,0,VALID,27.1895,VALID,227,VALID,1.64766,
2009-06-21, 02:36:05,VALID,1003.15,VALID,0,VALID,78.814,VALID,0,VALID,27.2285,VALID,242,VALID,0.933594,
2009-06-21, 02:37:05,VALID,1003.13,VALID,0,VALID,78.669,VALID,0,VALID,27.1895,VALID,242,VALID,1.39609,
2009-06-21, 02:38:05,VALID,1003.16,VALID,0,VALID,78.5164,VALID,0,VALID,27.2285,VALID,313,VALID,2.51328,
2009-06-21, 02:39:05,VALID,1003.14,VALID,0,VALID,78.4859,VALID,0,VALID,27.2869,VALID,288,VALID,1.85391,
2009-06-21, 02:40:05,VALID,1003.15,VALID,0,VALID,78.4859,VALID,0,VALID,27.2869,VALID,262,VALID,1.44414,
2009-06-21, 02:41:05,VALID,1003.15,VALID,0,VALID,78.7072,VALID,0,VALID,27.289,VALID,278,VALID,2.41719,
2009-06-21, 02:42:05,VALID,1003.17,VALID,0,VALID,79.2259,VALID,0,VALID,27.2675,VALID,247,VALID,1.10078,
2009-06-21, 02:43:05,VALID,1003.16,VALID,0,VALID,78.8521,VALID,0,VALID,27.248,VALID,279,VALID,1.71797,
2009-06-21, 02:44:05,VALID,1003.17,VALID,0,VALID,78.6385,VALID,0,VALID,27.2675,VALID,291,VALID,2.91914,
2009-06-21, 02:45:05,VALID,1003.23,VALID,0,VALID,78.5698,VALID,0,VALID,27.3085,VALID,19,VALID,0.814062,
2009-06-21, 02:46:05,VALID,1003.23,VALID,0,VALID,77.929,VALID,0,VALID,27.2675,VALID,279,VALID,2.02539,
2009-06-21, 02:47:05,VALID,1003.29,VALID,0,VALID,77.4408,VALID,0,VALID,27.3085,VALID,269,VALID,1.74766,
2009-06-21, 02:48:05,VALID,1003.31,VALID,0,VALID,77.5476,VALID,0,VALID,27.3064,VALID,310,VALID,1.09297,
2009-06-21, 02:49:05,VALID,1003.33,VALID,0,VALID,77.9366,VALID,0,VALID,27.2869,VALID,290,VALID,2.56602,
2009-06-21, 02:50:05,VALID,1003.4,VALID,0,VALID,77.9977,VALID,0,VALID,27.328,VALID,288,VALID,1.32422,
2009-06-21, 02:51:05,VALID,1003.45,VALID,0,VALID,78.1274,VALID,0,VALID,27.2869,VALID,301,VALID,2.74062,
2009-06-21, 02:52:05,VALID,1003.45,VALID,0,VALID,78.6461,VALID,0,VALID,27.2675,VALID,309,VALID,1.37148,
2009-06-21, 02:53:05,VALID,1003.5,VALID,0,VALID,78.7224,VALID,0,VALID,27.209,VALID,267,VALID,1.70664,
2009-06-21, 02:54:05,VALID,1003.5,VALID,0,VALID,78.6919,VALID,0,VALID,27.1721,VALID,276,VALID,1.58945,
2009-06-21, 02:55:05,VALID,1003.52,VALID,0,VALID,78.5851,VALID,0,VALID,27.1311,VALID,303,VALID,1.70156,
2009-06-21, 02:56:05,VALID,1003.45,VALID,0,VALID,77.0441,VALID,0,VALID,27.1116,VALID,325,VALID,3.66211,
2009-06-21, 02:57:05,VALID,1003.51,VALID,0,VALID,77.4026,VALID,0,VALID,27.1485,VALID,294,VALID,1.91484,
2009-06-21, 02:58:05,VALID,1003.53,VALID,0,VALID,76.6474,VALID,0,VALID,27.1485,VALID,214,VALID,1.28789,
2009-06-21, 02:59:05,VALID,1003.56,VALID,0,VALID,75.175,VALID,0,VALID,27.1485,VALID,270,VALID,1.69531,
2009-06-21, 03:00:05,VALID,1003.59,VALID,0,VALID,75.1063,VALID,0,VALID,27.1895,VALID,270,VALID,1.83047,
2009-06-21, 03:01:05,VALID,1003.62,VALID,0,VALID,74.6028,VALID,0,VALID,27.2264,VALID,272,VALID,2.44844,
2009-06-21, 03:02:05,VALID,1003.64,VALID,0,VALID,74.3511,VALID,0,VALID,27.2675,VALID,276,VALID,2.70273,
2009-06-21, 03:03:05,VALID,1003.65,VALID,0,VALID,75.1674,VALID,0,VALID,27.3044,VALID,246,VALID,1.47617,
2009-06-21, 03:04:05,VALID,1003.64,VALID,0,VALID,74.6181,VALID,0,VALID,27.3454,VALID,278,VALID,1.90664,
2009-06-21, 03:05:05,VALID,1003.61,VALID,0,VALID,75.1826,VALID,0.100563,VALID,27.3433,VALID,283,VALID,1.4707,
2009-06-21, 03:06:05,VALID,1003.59,VALID,0,VALID,74.8927,VALID,0,VALID,27.2869,VALID,277,VALID,2.05195,
2009-06-21, 03:07:05,VALID,1003.61,VALID,0,VALID,75.5183,VALID,0,VALID,27.2459,VALID,249,VALID,1.34063,
2009-06-21, 03:08:05,VALID,1003.56,VALID,0,VALID,74.908,VALID,0,VALID,27.2264,VALID,309,VALID,2.00547,
2009-06-21, 03:09:05,VALID,1003.53,VALID,0,VALID,74.9919,VALID,0,VALID,27.2285,VALID,286,VALID,2.67578,
2009-06-21, 03:10:05,VALID,1003.52,VALID,0,VALID,74.9156,VALID,0,VALID,27.209,VALID,257,VALID,2.15586,
2009-06-21, 03:11:05,VALID,1003.54,VALID,0,VALID,74.9766,VALID,0,VALID,27.2675,VALID,249,VALID,1.97617,
2009-06-21, 03:12:05,VALID,1003.53,VALID,0,VALID,74.9766,VALID,0,VALID,27.2675,VALID,271,VALID,2.32461,
2009-06-21, 03:13:05,VALID,1003.54,VALID,0,VALID,75.7929,VALID,0,VALID,27.2695,VALID,269,VALID,1.86992,
2009-06-21, 03:14:05,VALID,1003.51,VALID,0,VALID,76.2507,VALID,0,VALID,27.209,VALID,287,VALID,1.61016,
2009-06-21, 03:15:05,VALID,1003.57,VALID,0,VALID,77.1204,VALID,0,VALID,27.2111,VALID,282,VALID,1.63594,
2009-06-21, 03:16:05,VALID,1003.53,VALID,0,VALID,77.1966,VALID,0,VALID,27.1721,VALID,288,VALID,2.38906,
2009-06-21, 03:17:05,VALID,1003.55,VALID,0,VALID,77.99,VALID,0,VALID,27.1311,VALID,300,VALID,0.787109,
2009-06-21, 03:18:05,VALID,1003.58,VALID,0,VALID,78.0282,VALID,0,VALID,27.1116,VALID,236,VALID,1.61797,
2009-06-21, 03:19:05,VALID,1003.55,VALID,0,VALID,78.2723,VALID,0,VALID,27.0921,VALID,272,VALID,2.09961,
2009-06-21, 03:20:05,VALID,1003.54,VALID,0,VALID,78.5317,VALID,0,VALID,27.0726,VALID,261,VALID,1.13359,
2009-06-21, 03:21:05,VALID,1003.52,VALID,0,VALID,78.5546,VALID,0,VALID,27.0336,VALID,271,VALID,2.42031,
2009-06-21, 03:22:05,VALID,1003.5,VALID,0,VALID,78.814,VALID,0,VALID,26.9947,VALID,271,VALID,2.87539,
2009-06-21, 03:23:05,VALID,1003.41,VALID,0,VALID,78.1274,VALID,0,VALID,26.9947,VALID,281,VALID,3.3875,
2009-06-21, 03:24:05,VALID,1003.39,VALID,0,VALID,78.3791,VALID,0,VALID,26.9752,VALID,286,VALID,1.41914,
2009-06-21, 03:25:05,VALID,1003.44,VALID,0,VALID,78.0968,VALID,0,VALID,26.9167,VALID,290,VALID,3.99844,
2009-06-21, 03:26:05,VALID,1003.57,VALID,0,VALID,78.6995,VALID,0,VALID,26.8973,VALID,288,VALID,3.71992,
2009-06-21, 03:27:05,VALID,1003.66,VALID,0,VALID,78.2876,VALID,0,VALID,26.7414,VALID,318,VALID,3.88945,
2009-06-21, 03:28:05,VALID,1003.62,VALID,0,VALID,78.5393,VALID,0,VALID,26.3907,VALID,330,VALID,3.20547,
2009-06-21, 03:29:05,VALID,1003.51,VALID,0,VALID,78.8216,VALID,0,VALID,26.0206,VALID,298,VALID,4.26992,
2009-06-21, 03:30:05,VALID,1003.61,VALID,0,VALID,79.9812,VALID,0,VALID,25.7499,VALID,309,VALID,5.33594,
2009-06-21, 03:31:05,VALID,1003.6,VALID,0,VALID,81.4917,VALID,0,VALID,25.5357,VALID,319,VALID,1.77656,
2009-06-21, 03:32:05,VALID,1003.54,VALID,0,VALID,81.7892,VALID,0,VALID,25.2806,VALID,305,VALID,3.44961,
2009-06-21, 03:33:05,VALID,1003.62,VALID,0,VALID,82.5063,VALID,0,VALID,25.1461,VALID,297,VALID,2.99688,
2009-06-21, 03:34:05,VALID,1003.6,VALID,0,VALID,83.2463,VALID,0,VALID,25.0488,VALID,317,VALID,2.17422,
2009-06-21, 03:35:05,VALID,1003.57,VALID,0,VALID,83.4905,VALID,0,VALID,24.9106,VALID,305,VALID,2.63867,
2009-06-21, 03:36:05,VALID,1003.67,VALID,0,VALID,84.2076,VALID,0,VALID,24.8327,VALID,328,VALID,2.3207,
2009-06-21, 03:37:05,VALID,1003.69,VALID,0,VALID,84.3907,VALID,0,VALID,24.7548,VALID,304,VALID,2.7457,
2009-06-21, 03:38:05,VALID,1003.76,VALID,0,VALID,84.6882,VALID,0,VALID,24.7159,VALID,33,VALID,1.85312,
2009-06-21, 03:39:05,VALID,1003.79,VALID,0,VALID,85.0849,VALID,0,VALID,24.6769,VALID,328,VALID,2.3043,
2009-06-21, 03:40:05,VALID,1003.74,VALID,0,VALID,85.2146,VALID,0,VALID,24.6398,VALID,349,VALID,1.91445,
2009-06-21, 03:41:05,VALID,1003.8,VALID,0,VALID,85.329,VALID,0,VALID,24.5777,VALID,338,VALID,1.24922,
2009-06-21, 03:42:05,VALID,1003.76,VALID,0,VALID,85.9317,VALID,0,VALID,24.5796,VALID,30,VALID,0.901172,
2009-06-21, 03:43:05,VALID,1003.77,VALID,0,VALID,86.214,VALID,0,VALID,24.5212,VALID,240,VALID,0.774609,
2009-06-21, 03:44:05,VALID,1003.74,VALID,0,VALID,86.3055,VALID,0,VALID,24.4822,VALID,342,VALID,2.525,
2009-06-21, 03:45:05,VALID,1003.79,VALID,0,VALID,86.5191,VALID,0,VALID,24.4414,VALID,334,VALID,1.57891,